Weather History for Youngstown, OH

Change the Weather History Date:

Sunday, October 28, 2012

  Actual Average Record
Temperature  
Mean Temperature 43 °F 48 °F  
Max Temperature 45 °F 57 °F 77 °F (2014)
Min Temperature 40 °F 39 °F 25 °F (1965)
Degree Days  
Heating Degree Days 22 18  
Month to date heating degree days 337 385  
Since 1 July heating degree days 527 568  
Cooling Degree Days 0 0  
Month to date cooling degree days 3 3  
Year to date cooling degree days 761 541  
Moisture  
Dew Point 39 °F    
Average Humidity 88    
Maximum Humidity 93    
Minimum Humidity 83    
Precipitation  
Precipitation 0.70 in 0.09 in 0.95 in (1973)
Month to date precipitation 3.44 2.50  
Year to date precipitation 36.67 32.47  
Snow  
Snow 0.00 in 0.00 in - ()
Month to date snowfall 0.0 0.6  
Since 1 July snowfall T 0.6  
Since 1 September snowfall 0.0 0.6  
Snow Depth 0.00 in    
Sea Level Pressure  
Sea Level Pressure 29.99 in    
Wind  
Wind Speed 14 mph (North)    
Max Wind Speed 20 mph    
Max Gust Speed 29 mph    
Visibility 6 miles    
Events Rain    
T = Trace of Precipitation, MM = Missing Value Source: NWS Daily Summary

Daily Weather History Graph

Daily Weather History Graph

Search for Another Location

Airport:

Trip Planner

Search our weather history database for the weather conditions in past years. The results will help you decide how hot, cold, wet, or windy it might be!

Date:

Astronomy

Oct. 28, 2012 Rise Set
Actual Time 7:49 AM EDT 6:22 PM EDT
Civil Twilight 7:21 AM EDT 6:50 PM EDT
Nautical Twilight 6:48 AM EDT 7:23 PM EDT
Astronomical Twilight 6:16 AM EDT 7:55 PM EDT
Moon 5:39 PM EDT (10/28) 6:41 AM EDT (10/28)
Length of Visible Light 11h 29m
Length of Day
10h 32m
Waxing Gibbous, 99% of the Moon is Illuminated
Oct 28
Waxing Gibbous
Oct 29
Full
Nov 6
Last Quarter
Nov 13
New
Nov 20
First Quarter

Hourly Weather History & Observations

Time (EDT) Temp. Windchill Dew Point Humidity Pressure Visibility Wind Dir Wind Speed Gust Speed Precip Events Conditions
12:51 AM 45.0 °F 39.7 °F 39.9 °F 82% 30.06 in 10.0 mi NNE 10.4 mph - N/A   Overcast
1:51 AM 44.6 °F 39.7 °F 41.0 °F 87% 30.04 in 10.0 mi North 9.2 mph - N/A   Overcast
2:51 AM 44.1 °F 37.1 °F 39.9 °F 85% 30.06 in 10.0 mi North 15.0 mph - N/A   Overcast
3:41 AM 44.6 °F 38.8 °F 39.2 °F 81% 30.03 in 10.0 mi North 11.5 mph - N/A   Overcast
3:51 AM 44.1 °F 37.4 °F 39.9 °F 85% 30.05 in 10.0 mi North 13.8 mph 20.7 mph N/A   Overcast
4:34 AM 44.6 °F 38.4 °F 39.2 °F 81% 30.01 in 10.0 mi North 12.7 mph - N/A   Overcast
4:51 AM 44.1 °F 37.1 °F 39.0 °F 82% 30.03 in 10.0 mi North 15.0 mph 20.7 mph N/A   Overcast
5:51 AM 43.0 °F 36.4 °F 39.9 °F 89% 30.04 in 5.0 mi NNE 12.7 mph - 0.02 in Rain Light Rain
6:38 AM 42.8 °F 35.4 °F 39.2 °F 87% 30.00 in 9.0 mi North 15.0 mph - 0.03 in Rain Light Rain
6:51 AM 42.1 °F 34.5 °F 39.9 °F 92% 30.02 in 5.0 mi North 15.0 mph - 0.05 in Rain Rain
7:15 AM 42.8 °F 37.0 °F 39.2 °F 87% 29.99 in 6.0 mi North 10.4 mph - 0.05 in Rain Light Rain
7:51 AM 42.1 °F 34.9 °F 39.9 °F 92% 30.01 in 10.0 mi North 13.8 mph 20.7 mph 0.06 in   Light Drizzle
8:41 AM 42.8 °F 37.0 °F 39.2 °F 87% 30.01 in 2.0 mi North 10.4 mph 19.6 mph 0.01 in Rain Light Rain
8:51 AM 42.1 °F 35.7 °F 39.9 °F 92% 30.03 in 2.0 mi North 11.5 mph - 0.02 in Rain Light Rain
9:11 AM 42.8 °F 36.2 °F 39.2 °F 87% 30.00 in 4.0 mi North 12.7 mph - 0.02 in Rain Rain
9:51 AM 42.1 °F 36.6 °F 39.9 °F 92% 30.02 in 7.0 mi North 9.2 mph - 0.04 in Rain Light Rain
10:51 AM 42.1 °F 34.9 °F 39.0 °F 89% 30.01 in 4.0 mi North 13.8 mph 20.7 mph 0.03 in Rain Light Rain
11:10 AM 42.8 °F 35.4 °F 39.2 °F 87% 29.99 in 1.5 mi North 15.0 mph 21.9 mph 0.01 in Rain Light Rain
11:51 AM 42.1 °F 34.5 °F 39.9 °F 92% 30.01 in 1.0 mi North 15.0 mph 21.9 mph 0.05 in Rain Rain
12:51 PM 42.1 °F 34.5 °F 39.9 °F 92% 29.99 in 1.8 mi North 15.0 mph 21.9 mph 0.06 in Rain Light Rain
1:07 PM 42.8 °F 35.4 °F 39.2 °F 87% 29.96 in 3.0 mi North 15.0 mph 24.2 mph 0.00 in Rain Light Rain
1:51 PM 43.0 °F 36.8 °F 39.9 °F 89% 29.97 in 10.0 mi North 11.5 mph - 0.01 in   Overcast
2:51 PM 43.0 °F 35.4 °F 39.0 °F 86% 29.95 in 10.0 mi North 16.1 mph 24.2 mph N/A   Overcast
3:51 PM 42.1 °F 34.2 °F 39.0 °F 89% 29.94 in 5.0 mi North 16.1 mph 25.3 mph 0.00 in Rain Light Rain
4:51 PM 42.1 °F 34.9 °F 39.0 °F 89% 29.94 in 4.0 mi North 13.8 mph - 0.05 in Rain Rain
5:20 PM 42.8 °F 34.8 °F 39.2 °F 87% 29.91 in 2.0 mi North 17.3 mph 23.0 mph 0.03 in Rain Rain
5:39 PM 41.0 °F 33.5 °F 39.2 °F 93% 29.92 in 3.0 mi North 13.8 mph - 0.05 in Rain Light Rain
5:51 PM 41.0 °F 33.1 °F 39.0 °F 93% 29.94 in 3.0 mi North 15.0 mph - 0.07 in Rain Rain
6:51 PM 41.0 °F 32.8 °F 37.9 °F 89% 29.93 in 5.0 mi North 16.1 mph - 0.06 in Rain Rain
7:51 PM 41.0 °F 32.8 °F 37.9 °F 89% 29.94 in 3.0 mi North 16.1 mph - 0.08 in Rain Rain
8:51 PM 41.0 °F 33.1 °F 37.9 °F 89% 29.94 in 6.0 mi North 15.0 mph 23.0 mph 0.07 in Rain Light Rain
9:51 PM 41.0 °F 34.3 °F 37.9 °F 89% 29.93 in 6.0 mi North 11.5 mph - 0.01 in Rain Light Rain
10:51 PM 41.0 °F 32.8 °F 37.9 °F 89% 29.92 in 6.0 mi North 16.1 mph - 0.01 in Rain Light Rain
11:51 PM 41.0 °F 32.8 °F 37.9 °F 89% 29.90 in 10.0 mi NNW 16.1 mph - 0.00 in   Overcast